Regional Weather Roundup
Issued by NWS Charleston, SC

Current Version | Previous Version | Graphics & Text | Print | Product List | Glossary On
Versions: 1 2 3 4 5 6 7 8 9 10 11 12 13 14 15 16 17 18 19 20 21 22 23 24 25 26 27 28 29 30 31 32 33 34 35 36 37 38 39 40 41 42 43 44 45 46 47 48 49 50
000
ASUS42 KCHS 171412
RWRCHS

REGIONAL WEATHER ROUNDUP
NATIONAL WEATHER SERVICE CHARLESTON SC
900 AM EST TUE JAN 17 2017

NOTE: "FAIR" INDICATES FEW OR NO CLOUDS BELOW 12,000 FEET WITH NO
SIGNIFICANT WEATHER AND/OR OBSTRUCTIONS TO VISIBILITY.

NOT ALL STATIONS ARE QUALITY CONTROLLED. USE DATA WITH CAUTION...
ESPECIALLY DEWPOINT OBSERVATIONS.

SCZ027-030-031-034>040-042>050-171500-
...SOUTHEAST SOUTH CAROLINA...

CITY           SKY/WX    TMP DP  RH WIND       PRES   REMARKS
N CHARLESTON   FOG       55  54  96 N3        30.27S VSB 3/4
WATERFRONT PRK   N/A     54  54 100 CALM      30.26R
MOUNT PLEASANT PTSUNNY   55  55 100 CALM      30.27S
JOHNS ISLAND   FOG       57  57 100 CALM      30.27S VSB<1/4
PINOPOLIS      NOT AVBL
MONCKS CORNER  FOG       54  52  94 CALM      30.28R VSB 1/2
SUMMERVILLE    FOG      N/A N/A N/A CALM      30.29R VSB<1/4
BEAUFORT MCAS  FOG       58  58 100 N3        30.27S VSB 1/4
BEAUFORT ARPT  FOG       55  55 100 CALM      30.27R VSB 3/4
HILTON HEAD IS   N/A     57  57 100 CALM      30.27R FOG
WALTERBORO     FOG       61 N/A N/A CALM      30.28S VSB 1/4
ALLENDALE      FOG       59  59 100 CALM      30.26S VSB<1/4

...SOUTHERN MIDLANDS AND PEE DEE...

CITY           SKY/WX    TMP DP  RH WIND       PRES   REMARKS
GEORGETOWN     FOG       52  52 100 CALM      30.28R VSB 3/4
KINGSTREE      FOG       52  52 100 CALM      30.29R VSB 1/2
ORANGEBURG     FOG       58  58 100 S3        30.27S VSB 3/4
BARNWELL       CLOUDY    61  61 100 SW5       30.28R FOG
AIKEN          CLOUDY    55  55 100 SW7       30.30S FOG
MANNING        FOG       54  52  94 CALM      30.28S VSB<1/4
COLUMBIA       CLOUDY    56  54  93 CALM      30.26S FOG
SUMTER         CLOUDY    55  54  99 S3        30.25S FOG
FLORENCE       FOG       53  53 100 CALM      30.28R VSB 1/4
MYRTLE BEACH   PTSUNNY   54  50  87 N7        30.29R FOG
N MYRTLE BEACH CLOUDY    53  52  96 CALM      30.27R FOG

$$

GAZ063-065-086>088-099>101-113>116-118-119-134>141-150-171500-
...SOUTHEAST GEORGIA...

CITY           SKY/WX    TMP DP  RH WIND       PRES   REMARKS
SAVANNAH ARPT  FOG       58  56  93 CALM      30.27S VSB 1/4
HUNTER AAF     FOG       57  57 100 CALM      30.25S VSB 1/4
FORT STEWART   FOG       56  56  99 CALM      30.25S VSB<1/4
STATESBORO     FOG       59  32  36 SW3       30.28R VSB 1/4
SYLVANIA       FOG      N/A N/A N/A CALM      30.28R VSB 1/4
CLAXTON        FOG      N/A N/A N/A CALM      30.27S VSB 1/2

...CSRA...CENTRAL AND FAR SOUTHEAST GEORGIA...

CITY           SKY/WX    TMP DP  RH WIND       PRES   REMARKS
THOMSON        CLOUDY    61  60  96 SW5       30.30S
AUGUSTA-BUSH   CLOUDY    62  57  83 SW9       30.27R
AUGUSTA-DANIEL CLOUDY    60  56  86 SW6       30.27R
SWAINSBORO     CLOUDY    59  59 100 S3        30.27S FOG
VIDALIA        FOG       59  59 100 S3        30.27R VSB 1/2
EASTMAN        FOG       56  54  93 SE3       30.28R VSB 1/4
HAZLEHURST     FOG       60  60 100 S5        30.25S VSB 1
ALMA           FOG       59  59 100 SE3       30.26R VSB 1/2
WAYCROSS       FOG       62  62 100 CALM      30.27R VSB 1/4
JESUP          FOG       59  55  88 CALM      30.28R VSB<1/4
BAXLEY         FOG       59  59 100 S3        30.26R VSB 1/2
BRUNSWICK      FOG       59  59 100 CALM      30.28R VSB<1/4
SAINT SIMONS   CLOUDY    58  58 100 CALM      30.27R

$$

SCZ027-028-034-036>038-045-046-048>050-GAZ119-141-171500-
...LAKE AND SUPPLEMENTAL COASTAL OBSERVATIONS...

STATION/POSITION TIME  TEMP    WIND        PRES    WAVE   SWELL
                       AIR SEA DIR/SP/G            HT/PER HT/PER/DIR
                 (UTC) (F)     (DEG/KT/KT) (MB)    (FT/S) (FT/S/D)
WINYAH BAY       NOT AVBL
LAKE MURRAY      NOT AVBL
ACE BASIN NERRS  1245   55        CALM     1025.0
FORT PULASKI     1348      55  340/  1/  2 1025.1R
SAPELO ISLAND    1300   56        CALM     1025.0

$$

ANZ835-935-AMZ111-154-330-350-352-354-370-450-454-472-171500-
...C-MAN AND BUOY OBSERVATIONS...

STATION/POSITION TIME  TEMP    WIND        PRES    WAVE   SWELL
                       AIR SEA DIR/SP/G            HT/PER HT/PER/DIR
                 (UTC) (F)     (DEG/KT/KT) (MB)    (FT/S) (FT/S/D)
BUOY 41004       1250   71 70  180/  2/  2 1024.1    3/ 9   3/110/ 9
BUOY 41008       1250   58 59   20/  4/  4 1024.5    3/ 7   2/ 90/ 7
FOLLY BEACH CMAN 1300   55     350/  4/  5 1025.1R
CAPERS NEARSHORE NOT AVBL
FRIPP NEARSHORE  1308   56 56   30/  2/  4 1024.6R


STATION/POSITION TIME  TEMP    WIND        PRES    WAVE   SWELL
                       AIR SEA DIR/SP/G            HT/PER HT/PER/DIR
                 (UTC) (F)     (DEG/KT/KT) (MB)    (FT/S) (FT/S/D)
5E ST. MARYS GA  1330      61                N/A     3/ 9
FRYING PAN BUOY  1310          180/  8/ 10 1024.3
BUOY 41025       1250   58 72   10/  8/ 10 1024.7    2/10   2/110/10
CAPE LOOKOUT NC  1300   49     360/  5/  6 1024.5R
BUOY 41002       1250   71 72  190/ 14/ 16 1025.5    3/10   2/ 80/10
BUOY 41010       NOT AVBL
ST AUGUSTINE FL  1300   62 63     CALM     1025.3R


$$




USA.gov is the U.S. government's official web portal to all federal, state and local government web resources and services.